Weather History for KMMH - July, 2013

Change the Weather History Date:

Wednesday, July 3, 2013

  Actual Average (KBIH) Record (KBIH)
Temperature  
Mean Temperature 72 °F 76 °F  
Max Temperature 87 °F 97 °F 107 °F (1984)
Min Temperature 57 °F 55 °F 42 °F (1947)
Degree Days  
Heating Degree Days 0 0  
Month to date heating degree days 0  
Since 1 June heating degree days 19  
Since 1 July heating degree days 0  
Cooling Degree Days 7 11  
Month to date cooling degree days 33  
Year to date cooling degree days 315  
Since 1 June cooling degree days 247  
Growing Degree Days 22 (Base 50)    
Moisture  
Dew Point 39 °F    
Average Humidity 34    
Maximum Humidity 55    
Minimum Humidity 15    
Precipitation  
Precipitation 0.00 in 0.00 in 0.12 in (1961)
Month to date precipitation 0.01  
Year to date precipitation 3.08  
Snow  
Snow 0.00 in 0.00 in - ()
Month to date snowfall 0.0  
Since 1 June snowfall 0.0  
Since 1 July snowfall 0.0  
Snow Depth -    
Sea Level Pressure  
Sea Level Pressure 30.34 in    
Wind  
Wind Speed 9 mph (WNW)    
Max Wind Speed 23 mph    
Max Gust Speed 33 mph    
Visibility 10 miles    
Events      
T = Trace of Precipitation, MM = Missing Value Source: NWS Daily Summary

Daily Weather History Graph

Daily Weather History Graph

Search for Another Location

Airport or City:

Trip Planner

Search our weather history database for the weather conditions in past years. The results will help you decide how hot, cold, wet, or windy it might be!

Date:

Astronomy

Jul. 03, 2013 Rise Set
Actual Time 5:38 AM PDT 8:20 PM PDT
Civil Twilight 5:07 AM PDT 8:51 PM PDT
Nautical Twilight 4:29 AM PDT 9:30 PM PDT
Astronomical Twilight 3:45 AM PDT 10:13 PM PDT
Moon 2:17 AM PDT (7/3) 4:37 PM PDT (7/3)
Length of Visible Light 15h 43m
Length of Day
14h 41m
Waning Crescent, 17% of the Moon is Illuminated
Jul 3
Waning Crescent
Jul 8
New
Jul 15
First Quarter
Jul 22
Full
Jul 29
Last Quarter

Hourly Weather History & Observations

Time (PDT) Temp. Dew Point Humidity Pressure Visibility Wind Dir Wind Speed Gust Speed Precip Events Conditions
12:15 AM 62.6 °F 41.0 °F 45% 30.38 in 10.0 mi WNW 3.5 mph - N/A   Clear
12:35 AM 64.4 °F 41.0 °F 42% 30.38 in 10.0 mi West 9.2 mph - N/A   Clear
12:55 AM 62.6 °F 41.0 °F 45% 30.38 in 10.0 mi West 9.2 mph - N/A   Clear
1:15 AM 60.8 °F 41.0 °F 48% 30.38 in 10.0 mi West 8.1 mph - N/A   Clear
1:35 AM 60.8 °F 41.0 °F 48% 30.38 in 10.0 mi West 11.5 mph - N/A   Clear
1:55 AM 62.6 °F 39.2 °F 42% 30.38 in 10.0 mi West 13.8 mph - N/A   Clear
2:15 AM 64.4 °F 39.2 °F 40% 30.38 in 10.0 mi West 13.8 mph - N/A   Clear
2:35 AM 62.6 °F 41.0 °F 45% 30.38 in 10.0 mi West 8.1 mph - N/A   Clear
2:55 AM 60.8 °F 41.0 °F 48% 30.38 in 10.0 mi West 11.5 mph - N/A   Clear
3:15 AM 59.0 °F 41.0 °F 51% 30.38 in 10.0 mi WNW 5.8 mph - N/A   Clear
3:35 AM 59.0 °F 41.0 °F 51% 30.38 in 10.0 mi North 3.5 mph - N/A   Clear
3:55 AM 60.8 °F 41.0 °F 48% 30.38 in 10.0 mi West 10.4 mph - N/A   Clear
4:15 AM 59.0 °F 41.0 °F 51% 30.38 in 10.0 mi West 9.2 mph - N/A   Clear
4:35 AM 59.0 °F 41.0 °F 51% 30.38 in 10.0 mi West 6.9 mph 17.3 mph N/A   Clear
4:55 AM 57.2 °F 41.0 °F 55% 30.38 in 10.0 mi West 9.2 mph 16.1 mph N/A   Clear
5:15 AM 59.0 °F 41.0 °F 51% 30.38 in 10.0 mi West 17.3 mph 20.7 mph N/A   Clear
5:35 AM 57.2 °F 41.0 °F 55% 30.38 in 10.0 mi WNW 8.1 mph - N/A   Clear
5:55 AM 57.2 °F 41.0 °F 55% 30.39 in 10.0 mi WNW 11.5 mph 18.4 mph N/A   Clear
6:15 AM 59.0 °F 41.0 °F 51% 30.40 in 10.0 mi West 16.1 mph 19.6 mph N/A   Clear
6:35 AM 59.0 °F 42.8 °F 55% 30.39 in 10.0 mi WNW 8.1 mph 18.4 mph N/A   Clear
6:55 AM 62.6 °F 42.8 °F 48% 30.39 in 10.0 mi WNW 11.5 mph - N/A   Clear
7:15 AM 66.2 °F 42.8 °F 43% 30.39 in 10.0 mi WNW 10.4 mph - N/A   Clear
7:35 AM 66.2 °F 44.6 °F 46% 30.40 in 10.0 mi WNW 11.5 mph - N/A   Clear
7:55 AM 68.0 °F 44.6 °F 43% 30.39 in 10.0 mi NW 8.1 mph - N/A   Clear
8:15 AM 69.8 °F 44.6 °F 40% 30.39 in 10.0 mi WNW 9.2 mph - N/A   Clear
8:35 AM 73.4 °F 42.8 °F 33% 30.39 in 10.0 mi WNW 10.4 mph - N/A   Clear
8:55 AM 75.2 °F 42.8 °F 31% 30.38 in 10.0 mi West 9.2 mph - N/A   Clear
9:15 AM 75.2 °F 42.8 °F 31% 30.38 in 10.0 mi West 6.9 mph - N/A   Clear
9:35 AM 77.0 °F 42.8 °F 29% 30.37 in 10.0 mi NW 3.5 mph - N/A   Clear
9:55 AM 78.8 °F 42.8 °F 28% 30.37 in 10.0 mi West 8.1 mph - N/A   Clear
10:15 AM 80.6 °F 42.8 °F 26% 30.36 in 10.0 mi WNW 4.6 mph - N/A   Clear
10:35 AM 80.6 °F 41.0 °F 24% 30.35 in 10.0 mi WNW 5.8 mph - N/A   Clear
10:55 AM 84.2 °F 41.0 °F 22% 30.34 in 10.0 mi WNW 5.8 mph - N/A   Clear
11:15 AM 84.2 °F 39.2 °F 20% 30.33 in 10.0 mi WNW 5.8 mph - N/A   Clear
11:35 AM 84.2 °F 39.2 °F 20% 30.32 in 10.0 mi South 5.8 mph - N/A   Clear
11:55 AM 86.0 °F 41.0 °F 20% 30.32 in 10.0 mi East 8.1 mph - N/A   Clear
12:15 PM 87.8 °F 39.2 °F 18% 30.31 in 10.0 mi East 8.1 mph - N/A   Clear
12:35 PM 87.8 °F 39.2 °F 18% 30.31 in 10.0 mi SE 8.1 mph 16.1 mph N/A   Clear
12:55 PM 87.8 °F 37.4 °F 17% 30.30 in 10.0 mi ESE 10.4 mph - N/A   Clear
1:15 PM 86.0 °F 33.8 °F 15% 30.29 in 10.0 mi SE 6.9 mph - N/A   Clear
1:35 PM 84.2 °F 32.0 °F 15% 30.29 in 10.0 mi SSW 5.8 mph - N/A   Clear
1:55 PM 82.4 °F 35.6 °F 19% 30.29 in 10.0 mi SSW 20.7 mph 33.4 mph N/A   Clear
2:15 PM 82.4 °F 32.0 °F 16% 30.29 in 10.0 mi SSW 23.0 mph 31.1 mph N/A   Clear
2:35 PM 82.4 °F 32.0 °F 16% 30.29 in 10.0 mi SSW 20.7 mph 29.9 mph N/A   Clear
2:55 PM 82.4 °F 32.0 °F 16% 30.31 in 10.0 mi South 8.1 mph 25.3 mph N/A   Mostly Cloudy
3:15 PM 80.6 °F 35.6 °F 20% 30.32 in 10.0 mi NNE 12.7 mph 18.4 mph N/A   Mostly Cloudy
3:35 PM 82.4 °F 35.6 °F 19% 30.32 in 10.0 mi NNW 12.7 mph 23.0 mph N/A   Scattered Clouds
3:55 PM 82.4 °F 39.2 °F 21% 30.32 in 10.0 mi NNW 15.0 mph 24.2 mph N/A   Clear
4:15 PM 80.6 °F 39.2 °F 23% 30.32 in 10.0 mi NNW 16.1 mph 27.6 mph N/A   Mostly Cloudy
4:35 PM 78.8 °F 39.2 °F 24% 30.32 in 10.0 mi NW 18.4 mph 23.0 mph N/A   Scattered Clouds
4:55 PM 78.8 °F 37.4 °F 23% 30.30 in 10.0 mi West 20.7 mph 26.5 mph N/A   Scattered Clouds
5:15 PM 78.8 °F 37.4 °F 23% 30.30 in 10.0 mi West 12.7 mph - N/A   Scattered Clouds
5:35 PM 78.8 °F 37.4 °F 23% 30.30 in 10.0 mi WNW 15.0 mph 20.7 mph N/A   Scattered Clouds
5:55 PM 78.8 °F 37.4 °F 23% 30.29 in 10.0 mi NW 8.1 mph - N/A   Scattered Clouds
6:15 PM 78.8 °F 35.6 °F 21% 30.30 in 10.0 mi NNW 11.5 mph 23.0 mph N/A   Scattered Clouds
6:35 PM 77.0 °F 39.2 °F 26% 30.30 in 10.0 mi NNW 15.0 mph - N/A   Clear
6:55 PM 77.0 °F 39.2 °F 26% 30.30 in 10.0 mi NW 11.5 mph 19.6 mph N/A   Clear
7:15 PM 75.2 °F 39.2 °F 27% 30.30 in 10.0 mi West 10.4 mph 16.1 mph N/A   Clear
7:35 PM 73.4 °F 37.4 °F 27% 30.30 in 10.0 mi West 6.9 mph - N/A   Clear
7:55 PM 71.6 °F 39.2 °F 31% 30.30 in 10.0 mi Calm Calm - N/A   Clear
8:15 PM 71.6 °F 37.4 °F 29% 30.31 in 10.0 mi West 9.2 mph - N/A   Clear
8:35 PM 71.6 °F 37.4 °F 29% 30.31 in 10.0 mi West 6.9 mph - N/A   Clear
8:55 PM 69.8 °F 37.4 °F 31% 30.31 in 10.0 mi West 8.1 mph - N/A   Clear
9:15 PM 68.0 °F 37.4 °F 33% 30.30 in 10.0 mi West 4.6 mph - N/A   Clear
9:35 PM 66.2 °F 35.6 °F 32% 30.30 in 10.0 mi North 3.5 mph - N/A   Clear
9:55 PM 64.4 °F 39.2 °F 40% 30.30 in 10.0 mi West 5.8 mph - N/A   Clear
10:15 PM 62.6 °F 39.2 °F 42% 30.30 in 10.0 mi WNW 8.1 mph - N/A   Clear
10:35 PM 62.6 °F 39.2 °F 42% 30.30 in 10.0 mi North 3.5 mph - N/A   Clear
10:55 PM 60.8 °F 39.2 °F 45% 30.30 in 10.0 mi Calm Calm - N/A   Clear
11:15 PM 62.6 °F 39.2 °F 42% 30.30 in 10.0 mi West 4.6 mph - N/A   Clear
11:35 PM 60.8 °F 37.4 °F 42% 30.30 in 10.0 mi Calm Calm - N/A   Clear
11:55 PM 59.0 °F 37.4 °F 45% 30.29 in 10.0 mi West 3.5 mph - N/A   Clear